| time (UTC) | temp F | wind direction | speed MPH | gust MPH | rain 1hr in | rain 24hr in | rain mn in | humidity % | barometer mb |
| 20260904221600 | 73 | 0 | 0.0 | 0.0 | 0.00 | 0.00 | 0.00 | 25 | 1025.7 |
| 20260904220054 | 71 | 0 | 0.0 | 0.0 | 0.00 | 0.00 | 0.00 | 31 | 1025.6 |
| 20260904214602 | 69 | 0 | 0.0 | 0.0 | 0.00 | 0.00 | 0.00 | 40 | 1025.5 |
| 20260904213054 | 67 | 0 | 0.0 | 0.0 | 0.00 | 0.00 | 0.00 | 42 | 1025.3 |
| 20260904211555 | 66 | 0 | 0.0 | 0.0 | 0.00 | 0.00 | 0.00 | 46 | 1025.5 |
| 20260904210055 | 62 | 0 | 0.0 | 0.0 | 0.00 | 0.00 | 0.00 | 51 | 1025.3 |
| 20260904204555 | 60 | 0 | 0.0 | 0.0 | 0.00 | 0.00 | 0.00 | 52 | 1025.1 |
| 20260904203058 | 59 | 0 | 0.0 | 0.0 | 0.00 | 0.00 | 0.00 | 52 | 1025.1 |
| 20260904201602 | 59 | 0 | 0.0 | 0.0 | 0.00 | 0.00 | 0.00 | 52 | 1025.1 |
| 20260904200058 | 61 | 0 | 0.0 | 0.0 | 0.00 | 0.00 | 0.00 | 50 | 1024.9 |
| 20260904194554 | 62 | 0 | 0.0 | 0.0 | 0.00 | 0.00 | 0.00 | 50 | 1024.8 |
| 20260904193056 | 62 | 0 | 0.0 | 0.0 | 0.00 | 0.00 | 0.00 | 48 | 1024.6 |
| 20260904191554 | 63 | 0 | 0.0 | 9.0 | 0.00 | 0.00 | 0.00 | 48 | 1024.4 |
| 20260904190056 | 63 | 167 | 2.0 | 11.0 | 0.00 | 0.00 | 0.00 | 49 | 1024.2 |
| 20260904184601 | 63 | 144 | 3.0 | 8.0 | 0.00 | 0.00 | 0.00 | 49 | 1024.3 |
| 20260904183056 | 63 | 154 | 2.0 | 8.0 | 0.00 | 0.00 | 0.00 | 49 | 1024.2 |
| 20260904181557 | 63 | 123 | 3.0 | 9.0 | 0.00 | 0.00 | 0.00 | 49 | 1024.2 |
| 20260904174559 | 63 | 148 | 4.0 | 8.0 | 0.00 | 0.00 | 0.00 | 49 | 1024.2 |
| 20260904173056 | 63 | 154 | 2.0 | 9.0 | 0.00 | 0.00 | 0.00 | 48 | 1024.1 |
| 20260904171555 | 63 | 155 | 2.0 | 8.0 | 0.00 | 0.00 | 0.00 | 49 | 1024.2 |
| 20260904170049 | 63 | 146 | 3.0 | 9.0 | 0.00 | 0.00 | 0.00 | 49 | 1024.4 |
| 20260904164558 | 63 | 144 | 3.0 | 9.0 | 0.00 | 0.00 | 0.00 | 49 | 1024.4 |
| 20260904163059 | 62 | 0 | 0.0 | 0.0 | 0.00 | 0.00 | 0.00 | 50 | 1024.5 |
| 20260904161550 | 62 | 0 | 0.0 | 8.0 | 0.00 | 0.00 | 0.00 | 50 | 1024.5 |
| 20260904160057 | 62 | 0 | 0.0 | 5.0 | 0.00 | 0.00 | 0.00 | 50 | 1024.6 |
| 20260904154555 | 62 | 0 | 0.0 | 5.0 | 0.00 | 0.00 | 0.00 | 51 | 1024.7 |
| 20260904153102 | 62 | 0 | 0.0 | 0.0 | 0.00 | 0.00 | 0.00 | 50 | 1024.7 |
| 20260904151548 | 62 | 0 | 0.0 | 0.0 | 0.00 | 0.00 | 0.00 | 50 | 1024.9 |
| 20260904150056 | 62 | 0 | 0.0 | 0.0 | 0.00 | 0.00 | 0.00 | 50 | 1024.8 |
| 20260904144553 | 62 | 0 | 0.0 | 0.0 | 0.00 | 0.00 | 0.00 | 49 | 1024.9 |
| 20260904143051 | 63 | 0 | 0.0 | 0.0 | 0.00 | 0.00 | 0.00 | 48 | 1024.9 |
| 20260904141617 | 63 | 0 | 0.0 | 5.0 | 0.00 | 0.00 | 0.00 | 48 | 1025.0 |
| 20260904140056 | 63 | 0 | 0.0 | 8.0 | 0.00 | 0.00 | 0.00 | 48 | 1024.9 |
| 20260904134556 | 62 | 0 | 0.0 | 0.0 | 0.00 | 0.00 | 0.00 | 50 | 1024.9 |
| 20260904133049 | 62 | 0 | 0.0 | 0.0 | 0.00 | 0.00 | 0.00 | 50 | 1024.9 |
| 20260904131631 | 62 | 0 | 0.0 | 0.0 | 0.00 | 0.00 | 0.00 | 51 | 1024.9 |
| 20260904130054 | 62 | 0 | 0.0 | 0.0 | 0.00 | 0.00 | 0.00 | 50 | 1025.1 |
| 20260904124551 | 62 | 0 | 0.0 | 0.0 | 0.00 | 0.00 | 0.00 | 50 | 1025.2 |
| 20260904123107 | 63 | 0 | 0.0 | 0.0 | 0.00 | 0.00 | 0.00 | 49 | 1025.3 |
| 20260904121557 | 63 | 0 | 0.0 | 0.0 | 0.00 | 0.00 | 0.00 | 49 | 1025.3 |
| 20260904120057 | 64 | 0 | 0.0 | 0.0 | 0.00 | 0.00 | 0.00 | 49 | 1025.4 |
| 20260904114550 | 64 | 0 | 0.0 | 0.0 | 0.00 | 0.00 | 0.00 | 48 | 1025.5 |
| 20260904113049 | 64 | 0 | 0.0 | 0.0 | 0.00 | 0.00 | 0.00 | 48 | 1025.3 |
| 20260904111557 | 64 | 0 | 0.0 | 0.0 | 0.00 | 0.00 | 0.00 | 47 | 1025.3 |
| 20260904110053 | 65 | 0 | 0.0 | 11.0 | 0.00 | 0.00 | 0.00 | 47 | 1025.0 |
| 20260904104554 | 65 | 180 | 2.0 | 6.0 | 0.00 | 0.00 | 0.00 | 46 | 1024.7 |
| 20260904103049 | 65 | 0 | 0.0 | 0.0 | 0.00 | 0.00 | 0.00 | 46 | 1024.7 |
| 20260904101603 | 66 | 0 | 0.0 | 0.0 | 0.00 | 0.00 | 0.00 | 45 | 1024.7 |
| 20260904100053 | 67 | 0 | 0.0 | 0.0 | 0.00 | 0.00 | 0.00 | 45 | 1024.6 |
| 20260904094550 | 67 | 0 | 0.0 | 0.0 | 0.00 | 0.00 | 0.00 | 44 | 1024.5 |
| 20260904093054 | 68 | 0 | 0.0 | 0.0 | 0.00 | 0.00 | 0.00 | 43 | 1024.3 |
| 20260904091553 | 69 | 0 | 0.0 | 6.0 | 0.00 | 0.00 | 0.00 | 42 | 1024.2 |
| 20260904090052 | 69 | 174 | 0.0 | 6.0 | 0.00 | 0.00 | 0.00 | 41 | 1024.1 |
| 20260904084643 | 70 | 0 | 3.0 | 7.0 | 0.00 | 0.00 | 0.00 | 41 | 1024.1 |
| 20260904083059 | 70 | 202 | 3.0 | 6.0 | 0.00 | 0.00 | 0.00 | 41 | 1023.9 |
| 20260904081554 | 71 | 0 | 0.0 | 0.0 | 0.00 | 0.00 | 0.00 | 41 | 1023.6 |
| 20260904080059 | 72 | 0 | 0.0 | 0.0 | 0.00 | 0.00 | 0.00 | 40 | 1023.5 |
| 20260904074622 | 73 | 0 | 0.0 | 9.0 | 0.00 | 0.00 | 0.00 | 38 | 1023.2 |
| 20260904073055 | 74 | 173 | 3.0 | 10.0 | 0.00 | 0.00 | 0.00 | 37 | 1023.3 |
| 20260904071551 | 75 | 161 | 4.0 | 12.0 | 0.00 | 0.00 | 0.00 | 36 | 1023.1 |
| 20260904070059 | 76 | 174 | 7.0 | 17.0 | 0.00 | 0.00 | 0.00 | 34 | 1023.0 |
| 20260904064556 | 77 | 196 | 7.0 | 17.0 | 0.00 | 0.00 | 0.00 | 34 | 1023.0 |
| 20260904063107 | 78 | 233 | 5.0 | 14.0 | 0.00 | 0.00 | 0.00 | 33 | 1022.9 |
| 20260904061558 | 78 | 198 | 6.0 | 18.0 | 0.00 | 0.00 | 0.00 | 32 | 1022.9 |
| 20260904060112 | 79 | 128 | 6.0 | 19.0 | 0.00 | 0.00 | 0.00 | 31 | 1022.9 |
| 20260904054555 | 79 | 171 | 8.0 | 18.0 | 0.00 | 0.00 | 0.00 | 28 | 1022.9 |
| 20260904053049 | 80 | 155 | 3.0 | 16.0 | 0.00 | 0.00 | 0.00 | 26 | 1022.9 |
| 20260904051551 | 80 | 167 | 7.0 | 17.0 | 0.00 | 0.00 | 0.00 | 25 | 1022.8 |
| 20260904050056 | 81 | 205 | 9.0 | 17.0 | 0.00 | 0.00 | 0.00 | 22 | 1022.7 |
| 20260904044558 | 82 | 199 | 7.0 | 18.0 | 0.00 | 0.00 | 0.00 | 23 | 1022.8 |
| 20260904043054 | 82 | 203 | 7.0 | 17.0 | 0.00 | 0.00 | 0.00 | 25 | 1022.8 |
| 20260904041601 | 82 | 201 | 6.0 | 17.0 | 0.00 | 0.00 | 0.00 | 26 | 1022.9 |
| 20260904040058 | 82 | 202 | 3.0 | 14.0 | 0.00 | 0.00 | 0.00 | 30 | 1022.9 |
| 20260904034612 | 81 | 224 | 4.0 | 12.0 | 0.00 | 0.00 | 0.00 | 31 | 1023.1 |
| 20260904033056 | 81 | 184 | 4.0 | 14.0 | 0.00 | 0.00 | 0.00 | 30 | 1023.4 |
| 20260904031555 | 80 | 222 | 2.0 | 12.0 | 0.00 | 0.00 | 0.00 | 33 | 1023.6 |
| 20260904030104 | 81 | 215 | 2.0 | 12.0 | 0.00 | 0.00 | 0.00 | 33 | 1024.0 |
| 20260904024603 | 80 | 194 | 1.0 | 16.0 | 0.00 | 0.00 | 0.00 | 34 | 1023.9 |
| 20260904023103 | 80 | 196 | 5.0 | 10.0 | 0.00 | 0.00 | 0.00 | 33 | 1024.2 |
| 20260904021553 | 79 | 0 | 5.0 | 13.0 | 0.00 | 0.00 | 0.00 | 32 | 1024.5 |
| 20260904020101 | 79 | 177 | 5.0 | 14.0 | 0.00 | 0.00 | 0.00 | 35 | 1024.4 |
| 20260904014558 | 79 | 215 | 4.0 | 13.0 | 0.00 | 0.00 | 0.00 | 35 | 1024.7 |
| 20260904013055 | 79 | 222 | 3.0 | 10.0 | 0.00 | 0.00 | 0.00 | 36 | 1024.9 |
| 20260904011551 | 79 | 177 | 4.0 | 10.0 | 0.00 | 0.00 | 0.00 | 37 | 1025.3 |
| 20260904004600 | 77 | 196 | 2.0 | 10.0 | 0.00 | 0.00 | 0.00 | 40 | 1025.9 |
| 20260904003056 | 76 | 0 | 3.0 | 10.0 | 0.00 | 0.00 | 0.00 | 40 | 1026.0 |
| 20260904001556 | 76 | 0 | 1.0 | 11.0 | 0.00 | 0.00 | 0.00 | 41 | 1026.2 |
| 20260904000135 | 75 | 0 | 1.0 | 10.0 | 0.00 | 0.00 | 0.00 | 42 | 1026.2 |
| 20260903234558 | 74 | 207 | 2.0 | 10.0 | 0.00 | 0.00 | 0.00 | 42 | 1026.5 |
| 20260903233101 | 73 | 0 | 0.0 | 6.0 | 0.00 | 0.00 | 0.00 | 44 | 1026.6 |
| 20260903231553 | 73 | 0 | 0.0 | 5.0 | 0.00 | 0.00 | 0.00 | 46 | 1026.6 |
| 20260903230050 | 72 | 175 | 2.0 | 7.0 | 0.00 | 0.00 | 0.00 | 48 | 1026.6 |
| 20260903224606 | 71 | 0 | 2.0 | 6.0 | 0.00 | 0.00 | 0.00 | 49 | 1026.7 |
| 20260903223051 | 70 | 259 | 1.0 | 6.0 | 0.00 | 0.00 | 0.00 | 50 | 1026.6 |